Weather in Tsurib

Russia / Republic of Dagestan     42°14′24″N   46°50′01″E
temp.,
°C
wind,
m/s
gust,
m/s
humid.,
%
clouds,
%
prec.,
mm/h
press.,
hPa
HPBL,
m
13 may, thu
thu1300:00+6ssw66478 0.0 101861
03:00+6ssw665128 0.0 101858
06:00+8sw5656100 0.0 101897
09:00+15ssw37325 0.0 10162157
12:00+17ssw352817 0.0 10152860
15:00+17sw33264 0.0 10152718
18:00+15ene11495 0.0 101622
21:00+9sw445243 0.0 102043
14 may, fri
fri1400:00+8sw55520 0.0 102059
03:00+7sw554846 0.0 102054
06:00+9sw44521 0.0 102070
09:00+15sw22322 0.0 10171609
12:00+18sw123097 0.0 10162851
15:00+16nne123985 0.1 10162137
18:00+14s335698 0.4 1017181
21:00+8sw457610 0.8 102072
15 may, sat
sat1500:00+7sw55735 0.0 102092
03:00+6sw55760 0.0 101976
06:00+9sw44650 0.0 101892
09:00+15nnw11380 0.0 10161248
12:00+17ne433853 0.1 10152455
15:00+16nne334277 0.6 10141931
18:00+13ne126377 1.9 101678
21:00+9sw337359 2.7 101826
16 may, sun
sun1600:00+7sw4481100 0.0 101857
03:00+6sw54752 0.0 101757
06:00+8sw44633 0.0 1016103
09:00+14wsw12364 0.0 10131180
12:00+17wsw23321 0.0 10112053
15:00+17wsw33280 0.0 10092000
18:00+13sw34430 0.0 1011148
21:00+7sw66551 0.0 101489
17 may, mon
mon1700:00+7sw665010 0.0 101392
03:00+7sw6652100 0.0 101284
06:00+10sw565763 0.0 1011109
09:00+17sw453391 0.0 10081474
12:00+18sw462654 0.0 10082235
15:00+18wsw46240 0.0 10082100
18:00+14sw334092 0.0 101062
21:00+10sw4443100 0.0 101353